AirNav   Everest Fuels
 
 1496 users online  

2SC7 Laurel Hill Farms Airport
McClellanville, South Carolina, USA

GOING TO MCCLELLANVILLE?


FAA INFORMATION EFFECTIVE 01 DECEMBER 2022

Location

FAA Identifier: 2SC7
Lat/Long: 33-03-06.0000N 079-32-29.0000W
33-03.100000N 079-32.483333W
33.0516667,-79.5413889
(estimated)
Elevation: 8 ft. / 2 m (estimated)
Variation: 07W (2000)
From city: 5 miles SW of MCCLELLANVILLE, SC
Time zone: UTC -5 (UTC -4 during Daylight Saving Time)
Zip code: 29458

Airport Operations

Airport use: Private use. Permission required prior to landing
Activation date: 11/2000
Control tower: no
ARTCC: JACKSONVILLE CENTER
FSS: ANDERSON FLIGHT SERVICE STATION
Attendance: UNATNDD
Segmented circle: no

Airport Communications

WX AWOS-3 at LRO (15 nm SW): 118.625 (843-849-0438)
WX AWOS-3 at GGE (19 nm NE): 118.275 (843-527-3851)

Nearby radio navigation aids

VOR radial/distance  VOR name  Freq  Var
CHSr074/26.7CHARLESTON VORTAC113.5005W

 
NDB name  Hdg/Dist  Freq  Var  ID
ANDREWS188/24.025506WPHH .--. .... ....
DORCHESTER COUNTY098/37.036507WDYB -.. -.-- -...

Airport Services

Runway Information

Runway 6/24

Dimensions: 1900 x 100 ft. / 579 x 30 m
Surface: turf
RUNWAY 6  RUNWAY 24
Traffic pattern: leftleft
Obstructions: 60 ft. trees, 50 ft. from runway40 ft. pline, 40 ft. from runway

Airport Ownership and Management from official FAA records

Ownership: Privately-owned
Owner: LAUREL HILL FARMS LLC
8863 HIGHWAY 17 NORTH
MCCLELLANVILLE, SC 29458
Phone 843-887-4055
Manager: BRIGHT MC CONNELL, III
8863 HIGHWAY 17 NORTH
MCCLELLANVILLE, SC 29458
Phone 843-887-4055
WORK PH: 843-284-5200

Additional Remarks

FOR CD CTC CHARLESTON APCH AT 843-414-2832.

Instrument Procedures

There are no published instrument procedures at 2SC7.

Some nearby airports with instrument procedures:

KLRO - Mount Pleasant Regional Airport-Faison Field (15 nm SW)
KGGE - Georgetown County Airport (19 nm NE)
KPHH - Robert F Swinnie Airport (24 nm N)
KMKS - Berkeley County Airport (26 nm W)
KCHS - Charleston Air Force Base/International Airport (27 nm W)
 
Loc | Ops | Rwys | IFR | FBO | Links
Com | Nav | Svcs | Stats | Notes
Area around 2SC7 (Laurel Hill Farms Airport)
 
Road maps at: MapQuest Bing Google
 
Aerial photo
No photo
 
Sectional chart

 
Airport distance calculator
Flying to Laurel Hill Farms Airport? Find the distance to fly.

From to 2SC7

Sunrise and sunset
Times for 06-Dec-2022
 Local
(UTC-5)
 Zulu
(UTC)
Morning civil twilight06:4111:41
Sunrise07:0812:08
Sunset17:1022:10
Evening civil twilight17:3722:37

Current date and time
Zulu (UTC)  06-Dec-2022 15:43:05
Local (UTC-5)  06-Dec-2022 10:43:05
 
METAR
KLRO 
15nm SW 
061515Z AUTO 00000KT 8SM OVC050 19/19 A3023 RMK AO2
KGGE 
19nm NE 
061515Z AUTO 00000KT 10SM SCT041 OVC048 18/16 A3025 RMK AO2
KMKS 
26nm W 
061515Z AUTO 00000KT 10SM SCT050 SCT120 17/15 A3024 RMK AO2
KCHS 
26nm W 
061456Z 08004KT 10SM BKN055 BKN120 19/16 A3023 RMK AO2 SLP236 T01890161 51016 $
TAF
KCHS 
26nm W 
061137Z 0612/0712 03003KT P6SM VCSH SCT004 OVC050 FM061500 10003KT P6SM SCT022 BKN080 FM061800 16005KT P6SM BKN035 FM070100 09003KT P6SM BKN100 FM070700 00000KT 1SM BR SCT004 BKN100
KJZI 
31nm SW 
061137Z 0612/0712 04003KT P6SM VCSH SCT004 OVC070 FM061500 10003KT P6SM SCT022 BKN080 FM061800 16005KT P6SM BKN035 FM070100 09003KT P6SM BKN100 FM070700 00000KT 3SM BR SCT004 BKN100
NOTAMs
Click for the latest NOTAMs
NOTAMs are issued by the DoD/FAA and will open in a separate window not controlled by AirNav.

 

 
 

Would you like to see your business listed on this page?

 If your business provides an interesting product or service to pilots, flight crews, aircraft, or users of the Laurel Hill Farms Airport, you should consider listing it here.  To start the listing process, click on the button below
 
Add a business
 

Other Pages about Laurel Hill Farms Airport

Update a link
 
Copyright © AirNav, LLC. All rights reserved. Privacy Policy  Contact